Time,TemperatureF,DewpointF,PressureIn,WindDirection,WindDirectionDegrees,WindSpeedMPH,WindSpeedGustMPH,Humidity,HourlyPrecipIn,Conditions,Clouds,dailyrainin,SolarRadiationWatts/m^2,SoftwareType,DateUTC
2013-03-24 00:10:00,30.8,26.0,30.02,ENE,78,7.0,10.0,82,0.00,,,0.00,0,weatherlink.com 1.10,2013-03-24 05:10:00,
2013-03-24 00:25:00,30.7,26.0,30.01,East,80,7.0,10.0,82,0.00,,,0.00,0,weatherlink.com 1.10,2013-03-24 05:25:00,
2013-03-24 00:40:00,30.6,26.0,30.01,East,83,6.0,9.0,83,0.00,,,0.00,0,weatherlink.com 1.10,2013-03-24 05:40:00,
2013-03-24 00:55:00,30.5,26.0,30.01,ENE,76,5.0,9.0,84,0.00,,,0.00,0,weatherlink.com 1.10,2013-03-24 05:55:00,
2013-03-24 01:10:00,30.4,26.0,30.01,ENE,72,5.0,9.0,84,0.00,,,0.00,0,weatherlink.com 1.10,2013-03-24 06:10:00,
2013-03-24 01:25:00,30.3,26.0,30.01,ENE,75,3.0,9.0,85,0.00,,,0.00,0,weatherlink.com 1.10,2013-03-24 06:25:00,
2013-03-24 01:40:00,30.3,27.0,30.00,ENE,65,7.0,9.0,86,0.00,,,0.00,0,weatherlink.com 1.10,2013-03-24 06:40:00,
2013-03-24 01:55:00,30.2,27.0,29.99,ENE,62,7.0,9.0,86,0.00,,,0.00,0,weatherlink.com 1.10,2013-03-24 06:55:00,
2013-03-24 02:10:00,30.1,27.0,29.98,ENE,65,8.0,12.0,87,0.00,,,0.00,0,weatherlink.com 1.10,2013-03-24 07:10:00,
2013-03-24 02:25:00,30.0,27.0,29.98,ENE,66,11.0,11.0,87,0.00,,,0.00,0,weatherlink.com 1.10,2013-03-24 07:25:00,
2013-03-24 02:40:00,29.9,26.0,29.97,NE,55,8.0,13.0,86,0.00,,,0.00,0,weatherlink.com 1.10,2013-03-24 07:40:00,
2013-03-24 02:55:00,29.8,26.0,29.96,ENE,62,12.0,13.0,86,0.00,,,0.00,0,weatherlink.com 1.10,2013-03-24 07:55:00,
2013-03-24 03:10:00,29.7,26.0,29.96,ENE,57,8.0,12.0,86,0.00,,,0.00,0,weatherlink.com 1.10,2013-03-24 08:10:00,
2013-03-24 03:25:00,29.6,26.0,29.96,NE,50,6.0,11.0,86,0.00,,,0.00,0,weatherlink.com 1.10,2013-03-24 08:25:00,
2013-03-24 03:40:00,29.5,25.0,29.95,ENE,71,12.0,16.0,84,0.00,,,0.00,0,weatherlink.com 1.10,2013-03-24 08:40:00,
2013-03-24 03:55:00,29.4,25.0,29.94,ENE,66,13.0,17.0,84,0.00,,,0.00,0,weatherlink.com 1.10,2013-03-24 08:55:00,
2013-03-24 04:10:00,29.3,25.0,29.94,ENE,71,8.0,14.0,84,0.00,,,0.00,0,weatherlink.com 1.10,2013-03-24 09:10:00,
2013-03-24 04:25:00,29.1,25.0,29.93,NE,55,4.0,11.0,85,0.00,,,0.00,0,weatherlink.com 1.10,2013-03-24 09:25:00,
2013-03-24 04:40:00,29.1,25.0,29.93,NE,56,7.0,10.0,83,0.00,,,0.00,0,weatherlink.com 1.10,2013-03-24 09:40:00,
2013-03-24 04:55:00,29.0,25.0,29.93,ENE,63,9.0,11.0,84,0.00,,,0.00,0,weatherlink.com 1.10,2013-03-24 09:55:00,
2013-03-24 05:10:00,28.4,25.0,29.92,ENE,67,9.0,13.0,86,0.00,,,0.00,0,weatherlink.com 1.10,2013-03-24 10:10:00,
2013-03-24 05:25:00,28.1,25.0,29.91,NE,51,8.0,11.0,88,0.00,,,0.00,0,weatherlink.com 1.10,2013-03-24 10:25:00,
2013-03-24 05:41:00,28.0,25.0,29.91,NE,38,9.0,12.0,89,0.00,,,0.00,0,weatherlink.com 1.10,2013-03-24 10:41:00,
2013-03-24 05:56:00,28.3,25.0,29.90,NE,50,8.0,13.0,87,0.00,,,0.00,0,weatherlink.com 1.10,2013-03-24 10:56:00,
2013-03-24 06:11:00,28.5,25.0,29.90,NE,40,9.0,12.0,85,0.00,,,0.00,0,weatherlink.com 1.10,2013-03-24 11:11:00,
2013-03-24 06:26:00,28.5,25.0,29.89,NE,38,13.0,14.0,85,0.00,,,0.00,0,weatherlink.com 1.10,2013-03-24 11:26:00,
2013-03-24 06:41:00,28.5,25.0,29.89,NE,51,11.0,14.0,86,0.00,,,0.00,0,weatherlink.com 1.10,2013-03-24 11:41:00,
2013-03-24 06:56:00,28.5,25.0,29.89,NE,38,10.0,13.0,86,0.00,,,0.00,0,weatherlink.com 1.10,2013-03-24 11:56:00,
2013-03-24 07:11:00,28.5,25.0,29.89,NE,36,10.0,13.0,87,0.00,,,0.00,5,weatherlink.com 1.10,2013-03-24 12:11:00,
2013-03-24 07:26:00,28.4,26.0,29.89,NE,35,9.0,12.0,89,0.00,,,0.00,12,weatherlink.com 1.10,2013-03-24 12:26:00,
2013-03-24 07:56:00,28.3,26.0,29.89,NE,40,11.0,13.0,90,0.00,,,0.00,39,weatherlink.com 1.10,2013-03-24 12:56:00,
2013-03-24 08:11:00,28.1,26.0,29.89,NNE,26,8.0,12.0,92,0.00,,,0.00,51,weatherlink.com 1.10,2013-03-24 13:11:00,
2013-03-24 08:41:00,28.4,27.0,29.87,NE,39,13.0,15.0,93,0.00,,,0.00,134,weatherlink.com 1.10,2013-03-24 13:41:00,
2013-03-24 08:56:00,28.8,27.0,29.87,NE,35,11.0,15.0,93,0.00,,,0.00,137,weatherlink.com 1.10,2013-03-24 13:56:00,
2013-03-24 09:11:00,29.1,27.0,29.85,NE,44,12.0,18.0,92,0.00,,,0.00,141,weatherlink.com 1.10,2013-03-24 14:11:00,
2013-03-24 09:26:00,29.2,27.0,29.84,NE,52,16.0,20.0,92,0.00,,,0.00,188,weatherlink.com 1.10,2013-03-24 14:26:00,
2013-03-24 09:41:00,29.3,27.0,29.84,NE,42,13.0,21.0,92,0.00,,,0.00,142,weatherlink.com 1.10,2013-03-24 14:41:00,
2013-03-24 09:56:00,29.8,28.0,29.83,NE,34,15.0,16.0,92,0.00,,,0.00,206,weatherlink.com 1.10,2013-03-24 14:56:00,
2013-03-24 10:11:00,30.5,28.0,29.82,NE,38,20.0,23.0,89,0.00,,,0.00,353,weatherlink.com 1.10,2013-03-24 15:11:00,
2013-03-24 10:26:00,30.7,28.0,29.81,ENE,57,15.0,25.0,89,0.00,,,0.00,366,weatherlink.com 1.10,2013-03-24 15:26:00,
2013-03-24 10:41:00,30.7,28.0,29.82,NE,50,24.0,25.0,89,0.00,,,0.00,243,weatherlink.com 1.10,2013-03-24 15:41:00,
2013-03-24 10:56:00,30.5,27.0,29.82,NE,41,17.0,21.0,88,0.00,,,0.00,148,weatherlink.com 1.10,2013-03-24 15:56:00,
2013-03-24 11:11:00,30.5,27.0,29.82,NE,50,12.0,21.0,88,0.00,,,0.00,148,weatherlink.com 1.10,2013-03-24 16:11:00,
2013-03-24 11:26:00,30.6,28.0,29.81,NE,52,14.0,23.0,88,0.00,,,0.00,174,weatherlink.com 1.10,2013-03-24 16:26:00,
2013-03-24 11:41:00,30.7,27.0,29.81,NE,51,13.0,26.0,86,0.00,,,0.00,204,weatherlink.com 1.10,2013-03-24 16:41:00,
2013-03-24 11:56:00,30.8,27.0,29.81,NE,52,21.0,24.0,86,0.00,,,0.00,156,weatherlink.com 1.10,2013-03-24 16:56:00,
2013-03-24 12:11:00,30.9,27.0,29.81,ENE,59,11.0,22.0,85,0.00,,,0.00,109,weatherlink.com 1.10,2013-03-24 17:11:00,
2013-03-24 12:26:00,31.0,27.0,29.81,NE,49,14.0,19.0,86,0.00,,,0.00,141,weatherlink.com 1.10,2013-03-24 17:26:00,
2013-03-24 12:42:00,30.6,27.0,29.80,NE,37,20.0,22.0,87,0.00,,,0.00,118,weatherlink.com 1.10,2013-03-24 17:42:00,
2013-03-24 12:56:00,30.5,27.0,29.80,NNE,30,11.0,20.0,87,0.00,,,0.00,134,weatherlink.com 1.10,2013-03-24 17:56:00,
2013-03-24 13:11:00,30.6,27.0,29.80,NNE,24,15.0,19.0,87,0.00,,,0.00,174,weatherlink.com 1.10,2013-03-24 18:11:00,
2013-03-24 13:26:00,31.1,27.0,29.79,NNE,30,14.0,18.0,86,0.00,,,0.00,322,weatherlink.com 1.10,2013-03-24 18:26:00,
2013-03-24 13:42:00,30.8,27.0,29.78,NNE,30,17.0,20.0,86,0.00,,,0.00,130,weatherlink.com 1.10,2013-03-24 18:42:00,
2013-03-24 13:57:00,30.6,27.0,29.78,NNE,24,14.0,19.0,86,0.00,,,0.00,113,weatherlink.com 1.10,2013-03-24 18:57:00,
2013-03-24 14:12:00,30.4,27.0,29.77,NNE,30,14.0,22.0,86,0.00,,,0.00,130,weatherlink.com 1.10,2013-03-24 19:12:00,
2013-03-24 14:27:00,30.5,27.0,29.77,NNE,31,16.0,21.0,86,0.00,,,0.00,134,weatherlink.com 1.10,2013-03-24 19:27:00,
2013-03-24 14:42:00,30.2,27.0,29.76,NNE,32,15.0,21.0,86,0.00,,,0.00,105,weatherlink.com 1.10,2013-03-24 19:42:00,
2013-03-24 14:57:00,30.3,27.0,29.76,NNE,19,19.0,23.0,86,0.00,,,0.00,162,weatherlink.com 1.10,2013-03-24 19:57:00,
2013-03-24 15:12:00,30.5,27.0,29.75,North,9,15.0,22.0,86,0.00,,,0.00,188,weatherlink.com 1.10,2013-03-24 20:12:00,
2013-03-24 15:42:00,30.3,27.0,29.74,NE,42,15.0,24.0,88,0.00,,,0.00,141,weatherlink.com 1.10,2013-03-24 20:42:00,
2013-03-24 15:57:00,30.1,27.0,29.74,NNE,15,10.0,22.0,89,0.00,,,0.00,151,weatherlink.com 1.10,2013-03-24 20:57:00,
2013-03-24 16:12:00,30.0,28.0,29.74,North,360,6.0,15.0,90,0.00,,,0.00,137,weatherlink.com 1.10,2013-03-24 21:12:00,
2013-03-24 16:27:00,29.7,27.0,29.74,NNE,32,15.0,20.0,90,0.00,,,0.00,127,weatherlink.com 1.10,2013-03-24 21:27:00,
2013-03-24 16:42:00,29.6,27.0,29.74,North,350,8.0,21.0,90,0.00,,,0.00,107,weatherlink.com 1.10,2013-03-24 21:42:00,
2013-03-24 16:57:00,29.6,27.0,29.74,North,350,7.0,16.0,90,0.00,,,0.00,81,weatherlink.com 1.10,2013-03-24 21:57:00,
2013-03-24 17:12:00,29.7,27.0,29.75,NNE,21,12.0,16.0,89,0.00,,,0.00,67,weatherlink.com 1.10,2013-03-24 22:12:00,
2013-03-24 17:27:00,30.0,27.0,29.75,NE,39,6.0,20.0,88,0.00,,,0.00,58,weatherlink.com 1.10,2013-03-24 22:27:00,
2013-03-24 17:42:00,29.9,27.0,29.76,NNE,33,19.0,21.0,88,0.00,,,0.00,53,weatherlink.com 1.10,2013-03-24 22:42:00,
2013-03-24 17:57:00,29.6,27.0,29.76,NNE,25,14.0,18.0,90,0.00,,,0.00,40,weatherlink.com 1.10,2013-03-24 22:57:00,
2013-03-24 18:12:00,29.2,27.0,29.77,NNE,29,9.0,16.0,92,0.00,,,0.00,33,weatherlink.com 1.10,2013-03-24 23:12:00,
2013-03-24 18:27:00,29.1,27.0,29.78,NNE,19,5.0,10.0,93,0.00,,,0.00,21,weatherlink.com 1.10,2013-03-24 23:27:00,
2013-03-24 18:42:00,29.0,27.0,29.78,NNE,14,4.0,19.0,93,0.00,,,0.00,12,weatherlink.com 1.10,2013-03-24 23:42:00,
2013-03-24 18:57:00,29.0,27.0,29.79,NNE,22,3.0,10.0,93,0.00,,,0.00,7,weatherlink.com 1.10,2013-03-24 23:57:00,
2013-03-24 19:12:00,29.0,27.0,29.79,NNE,19,4.0,11.0,93,0.00,,,0.00,0,weatherlink.com 1.10,2013-03-25 00:12:00,
2013-03-24 19:27:00,28.9,27.0,29.80,North,9,4.0,11.0,93,0.00,,,0.00,0,weatherlink.com 1.10,2013-03-25 00:27:00,
2013-03-24 19:42:00,28.8,27.0,29.80,North,351,5.0,12.0,94,0.00,,,0.00,0,weatherlink.com 1.10,2013-03-25 00:42:00,
2013-03-24 19:57:00,28.7,27.0,29.80,North,355,5.0,12.0,94,0.00,,,0.00,0,weatherlink.com 1.10,2013-03-25 00:57:00,
2013-03-24 20:12:00,28.6,27.0,29.80,NNE,22,4.0,11.0,94,0.00,,,0.00,0,weatherlink.com 1.10,2013-03-25 01:12:00,
2013-03-24 20:27:00,28.5,27.0,29.80,North,5,3.0,14.0,94,0.00,,,0.00,0,weatherlink.com 1.10,2013-03-25 01:27:00,
2013-03-24 20:42:00,28.5,27.0,29.80,North,5,7.0,13.0,94,0.00,,,0.00,0,weatherlink.com 1.10,2013-03-25 01:42:00,
2013-03-24 20:57:00,28.4,27.0,29.80,North,360,6.0,13.0,94,0.00,,,0.00,0,weatherlink.com 1.10,2013-03-25 01:57:00,
2013-03-24 21:12:00,28.4,27.0,29.80,NNW,345,6.0,15.0,94,0.00,,,0.00,0,weatherlink.com 1.10,2013-03-25 02:12:00,
2013-03-24 21:27:00,28.4,27.0,29.80,North,355,7.0,16.0,94,0.00,,,0.00,0,weatherlink.com 1.10,2013-03-25 02:27:00,
2013-03-24 21:42:00,28.3,27.0,29.80,NNE,13,6.0,14.0,93,0.00,,,0.00,0,weatherlink.com 1.10,2013-03-25 02:42:00,
2013-03-24 21:57:00,28.5,26.0,29.80,NNE,13,10.0,13.0,91,0.00,,,0.00,0,weatherlink.com 1.10,2013-03-25 02:57:00,
2013-03-24 22:12:00,28.9,26.0,29.80,NNE,13,12.0,17.0,87,0.00,,,0.00,0,weatherlink.com 1.10,2013-03-25 03:12:00,
2013-03-24 22:27:00,29.0,25.0,29.81,NNE,26,9.0,16.0,83,0.00,,,0.00,0,weatherlink.com 1.10,2013-03-25 03:27:00,
2013-03-24 22:42:00,29.0,24.0,29.80,North,9,7.0,16.0,82,0.00,,,0.00,0,weatherlink.com 1.10,2013-03-25 03:42:00,
2013-03-24 22:57:00,29.0,24.0,29.80,North,9,7.0,18.0,80,0.00,,,0.00,0,weatherlink.com 1.10,2013-03-25 03:57:00,
2013-03-24 23:12:00,29.0,23.0,29.80,NNE,22,9.0,18.0,79,0.00,,,0.00,0,weatherlink.com 1.10,2013-03-25 04:12:00,
2013-03-24 23:27:00,28.8,23.0,29.80,North,360,12.0,14.0,79,0.00,,,0.00,0,weatherlink.com 1.10,2013-03-25 04:27:00,
2013-03-24 23:42:00,28.8,23.0,29.80,NNE,22,8.0,13.0,79,0.00,,,0.00,0,weatherlink.com 1.10,2013-03-25 04:42:00,
2013-03-24 23:57:00,28.7,23.0,29.80,North,360,3.0,12.0,79,0.00,,,0.00,0,weatherlink.com 1.10,2013-03-25 04:57:00,